Back to catalog

BREEZE-M DEB

AliveHEO
NORAD 37202·DEBRIS·🇷🇺 Russia

Launched Mar 14, 2008 from Baikonur Cosmodrome

Loading…

Next Passes (next 24 hours)

TLE

FreshSource: Space-Track

Epoch: Sep 8, 2026, 04:10 UTC

1 37202U 08011G   26251.17405918 -.00000027  00000-0  13230-2 0  9996
2 37202  49.2801 338.2231 6412215 246.9092  36.0366  3.07267993161036

Track BREEZE-M DEB in real time with AllMySat

Download on the App Store